Location: Recife
(8.0585°S, 34.8848°W)
Time: 20:14:00
(UTC-03:00)

A-11 Canister half - Pass Details

Date: 22 April 2026
Orbit: 1515 x 1684 km, 47.2° (Epoch: 16 May)

Event Time Altitude Azimuth Distance (km) Brightness Sun altitude
Rises 09:58:11 0° 0° (N) 4,820 11.9 61.6°
Reaches altitude 10° 10:04:00 10° 27° (NNE) 3,876 11.7 62.5°
Maximum altitude 10:07:52 13° 51° (NE) 3,679 11.6 63.2°
Drops below altitude 10° 10:11:46 10° 74° (ENE) 3,921 11.6 63.8°
Sets 10:17:38 0° 100° (E) 4,931 11.8 64.7°
